When you browse on this site, cookies collect data to enhance your experience and personalize the content and advertising you see.
Visit our Privacy Policy to learn more. By continuing to use the site, you agree to this use of cookies and data.
  • In Hungary
  • List of Countries
  • For 7 days
  • Water Temperature
  • Weather Map
  • News
  • Weather Widgets
  • user-avatar
    Login

    Hourly Weather Wilcze

    Today, 8 December, Sunday

    Time Temperature Precipitation Wind Pressure Humidity
    00:00 +7°C° 0 mm 6 mps 752 mmHg 81%
    01:00 +5°C° 0 mm 6 mps 752 mmHg 81%
    02:00 +5°C° 0 mm 6 mps 752 mmHg 81%
    03:00 +5°C° 0 mm 6 mps 751 mmHg 81%
    04:00 +6°C° 0 mm 5 mps 751 mmHg 81%
    05:00 +5°C° 0 mm 5 mps 751 mmHg 82%
    06:00 +5°C° 0 mm 5 mps 751 mmHg 82%
    07:00 +5°C° 0 mm 5 mps 751 mmHg 82%
    08:00 +4°C° 0 mm 6 mps 750 mmHg 79%
    09:00 +5°C° 0 mm 6 mps 750 mmHg 76%
    10:00 +5°C° 0 mm 7 mps 749 mmHg 73%
    11:00 +5°C° 0 mm 7 mps 748 mmHg 72%
    12:00 +6°C° 0 mm 7 mps 747 mmHg 71%
    13:00 +6°C° 0 mm 7 mps 747 mmHg 69%
    14:00 +8°C° 0.1 mm 7 mps 746 mmHg 71%
    15:00 +8°C° 0.1 mm 7 mps 746 mmHg 73%
    16:00 +8°C° 0.1 mm 7 mps 745 mmHg 75%
    17:00 +8°C° 0.3 mm 7 mps 745 mmHg 77%
    18:00 +8°C° 0.3 mm 7 mps 745 mmHg 79%
    19:00 +8°C° 0.3 mm 7 mps 744 mmHg 81%
    20:00 +8°C° 0.1 mm 6 mps 744 mmHg 82%
    21:00 +8°C° 0.1 mm 5 mps 744 mmHg 82%
    22:00 +8°C° 0.1 mm 5 mps 744 mmHg 83%
    23:00 +8°C° 0.2 mm 5 mps 744 mmHg 85%

    Tomorrow, 9 December, Monday

    Time Temperature Precipitation Wind Pressure Humidity
    00:00 +8°C° 0.2 mm 4 mps 743 mmHg 86%
    01:00 +8°C° 0.2 mm 4 mps 743 mmHg 88%
    02:00 +7°C° 0.5 mm 5 mps 743 mmHg 84%
    03:00 +7°C° 0.5 mm 5 mps 742 mmHg 79%
    04:00 +7°C° 0.5 mm 5 mps 742 mmHg 75%
    05:00 +7°C° 0 mm 5 mps 742 mmHg 75%
    06:00 +6°C° 0 mm 5 mps 743 mmHg 76%
    07:00 +5°C° 0 mm 5 mps 743 mmHg 77%
    08:00 +6°C° 0 mm 5 mps 743 mmHg 74%
    09:00 +5°C° 0 mm 6 mps 743 mmHg 71%
    10:00 +5°C° 0 mm 6 mps 743 mmHg 69%
    11:00 +7°C° 0 mm 6 mps 743 mmHg 66%
    12:00 +7°C° 0 mm 6 mps 743 mmHg 63%
    13:00 +8°C° 0 mm 7 mps 742 mmHg 61%
    14:00 +7°C° 0 mm 6 mps 742 mmHg 65%
    15:00 +7°C° 0 mm 6 mps 742 mmHg 69%
    16:00 +6°C° 0 mm 5 mps 741 mmHg 73%
    17:00 +5°C° 0.1 mm 6 mps 742 mmHg 75%
    18:00 +5°C° 0.1 mm 7 mps 742 mmHg 76%
    19:00 +5°C° 0.1 mm 7 mps 743 mmHg 77%
    20:00 +5°C° 0.1 mm 7 mps 743 mmHg 78%
    21:00 +5°C° 0.1 mm 7 mps 744 mmHg 78%
    22:00 +5°C° 0.1 mm 6 mps 745 mmHg 78%
    23:00 +4°C° 0.1 mm 7 mps 746 mmHg 76%

    Day after tomorrow, 10 December, Tuesday

    Time Temperature Precipitation Wind Pressure Humidity
    00:00 +4°C° 0.1 mm 7 mps 747 mmHg 74%
    01:00 +2°C° 0.1 mm 8 mps 747 mmHg 72%
    02:00 +2°C° 0.1 mm 8 mps 748 mmHg 76%
    03:00 +1°C° 0.1 mm 9 mps 749 mmHg 80%
    04:00 +1°C° 0.1 mm 10 mps 749 mmHg 84%
    05:00 +1°C° 0.7 mm 9 mps 750 mmHg 85%
    06:00 +1°C° 0.7 mm 8 mps 751 mmHg 86%
    07:00 +2°C° 0.7 mm 8 mps 752 mmHg 87%
    08:00 +3°C° 0.1 mm 7 mps 754 mmHg 84%
    09:00 +3°C° 0.1 mm 7 mps 755 mmHg 80%
    10:00 +3°C° 0.1 mm 7 mps 756 mmHg 77%
    11:00 +3°C° 0 mm 7 mps 757 mmHg 78%
    12:00 +2°C° 0 mm 7 mps 758 mmHg 79%
    13:00 +2°C° 0 mm 7 mps 759 mmHg 79%
    14:00 +2°C° 0 mm 6 mps 759 mmHg 76%
    15:00 +2°C° 0 mm 5 mps 760 mmHg 72%
    16:00 +1°C° 0 mm 4 mps 761 mmHg 68%
    17:00 +1°C° 0 mm 3 mps 761 mmHg 72%
    18:00 +2°C° 0 mm 2 mps 761 mmHg 76%
    19:00 +1°C° 0 mm 2 mps 762 mmHg 79%
    20:00 +1°C° 0 mm 2 mps 762 mmHg 82%
    21:00 -1°C° 0 mm 2 mps 762 mmHg 84%
    22:00 -1°C° 0 mm 2 mps 762 mmHg 86%
    23:00 -1°C° 0 mm 2 mps 761 mmHg 87%

    11 December, Wednesday

    Time Temperature Precipitation Wind Pressure Humidity
    00:00 -1°C° 0 mm 2 mps 761 mmHg 87%
    01:00 -1°C° 0 mm 2 mps 761 mmHg 87%
    02:00 -1°C° 0 mm 3 mps 760 mmHg 85%
    03:00 -1°C° 0 mm 3 mps 759 mmHg 83%
    04:00 -1°C° 0 mm 4 mps 759 mmHg 81%
    05:00 -1°C° 0 mm 4 mps 758 mmHg 79%
    06:00 -2°C° 0 mm 4 mps 758 mmHg 76%
    07:00 -2°C° 0 mm 4 mps 757 mmHg 74%
    08:00 -1°C° 0 mm 4 mps 757 mmHg 72%
    09:00 -1°C° 0 mm 4 mps 757 mmHg 71%
    10:00 +1°C° 0 mm 3 mps 756 mmHg 70%
    11:00 +1°C° 0 mm 3 mps 756 mmHg 66%
    12:00 +2°C° 0 mm 3 mps 756 mmHg 62%
    13:00 +3°C° 0 mm 3 mps 755 mmHg 58%
    14:00 +2°C° 0 mm 3 mps 755 mmHg 61%
    15:00 +1°C° 0 mm 3 mps 755 mmHg 64%
    16:00 +1°C° 0 mm 3 mps 754 mmHg 67%
    17:00 0°C° 0 mm 3 mps 754 mmHg 67%
    18:00 0°C° 0 mm 3 mps 754 mmHg 67%
    19:00 0°C° 0 mm 3 mps 754 mmHg 67%
    20:00 +1°C° 0 mm 2 mps 754 mmHg 68%
    21:00 +1°C° 0 mm 2 mps 754 mmHg 68%
    22:00 +2°C° 0 mm 2 mps 754 mmHg 68%
    23:00 +2°C° 0 mm 2 mps 753 mmHg 69%

    12 December, Thursday

    Time Temperature Precipitation Wind Pressure Humidity
    00:00 +2°C° 0 mm 2 mps 753 mmHg 70%
    01:00 +2°C° 0 mm 2 mps 753 mmHg 71%
    02:00 +2°C° 0 mm 2 mps 752 mmHg 72%
    03:00 +2°C° 0 mm 2 mps 752 mmHg 73%
    04:00 +2°C° 0 mm 2 mps 752 mmHg 74%
    05:00 +2°C° 0.1 mm 2 mps 752 mmHg 77%
    06:00 +1°C° 0.1 mm 3 mps 751 mmHg 79%
    07:00 +1°C° 0.1 mm 3 mps 751 mmHg 81%
    08:00 +1°C° 0 mm 3 mps 751 mmHg 84%
    09:00 +1°C° 0 mm 3 mps 751 mmHg 86%
    10:00 +1°C° 0 mm 3 mps 751 mmHg 89%
    11:00 +2°C° 0.2 mm 3 mps 751 mmHg 87%
    12:00 +2°C° 0.2 mm 3 mps 751 mmHg 86%
    13:00 +3°C° 0.2 mm 3 mps 751 mmHg 85%
    14:00 +3°C° 0 mm 3 mps 751 mmHg 84%
    15:00 +2°C° 0 mm 3 mps 751 mmHg 84%
    16:00 +3°C° 0 mm 2 mps 750 mmHg 84%
    17:00 +2°C° 0 mm 3 mps 751 mmHg 85%
    18:00 +2°C° 0 mm 3 mps 751 mmHg 86%
    19:00 +2°C° 0 mm 3 mps 751 mmHg 87%
    20:00 +2°C° 0 mm 3 mps 751 mmHg 87%
    21:00 +2°C° 0 mm 3 mps 751 mmHg 88%
    22:00 +2°C° 0 mm 3 mps 750 mmHg 89%
    23:00 +2°C° 0 mm 3 mps 750 mmHg 89%

    13 December, Friday

    Time Temperature Precipitation Wind Pressure Humidity
    00:00 0°C° 0 mm 4 mps 749 mmHg 89%
    01:00 0°C° 0 mm 4 mps 749 mmHg 90%
    02:00 -1°C° 0 mm 4 mps 748 mmHg 88%
    03:00 -1°C° 0 mm 4 mps 747 mmHg 86%
    04:00 -1°C° 0 mm 4 mps 747 mmHg 85%
    05:00 -1°C° 0 mm 5 mps 745 mmHg 82%
    06:00 -2°C° 0 mm 6 mps 744 mmHg 79%
    07:00 -2°C° 0 mm 6 mps 743 mmHg 76%
    08:00 -1°C° 0 mm 7 mps 742 mmHg 71%
    09:00 -1°C° 0 mm 7 mps 741 mmHg 67%
    10:00 0°C° 0 mm 8 mps 739 mmHg 63%
    11:00 0°C° 1.1 mm 8 mps 738 mmHg 71%
    12:00 0°C° 1.1 mm 8 mps 737 mmHg 79%
    13:00 0°C° 1.1 mm 9 mps 736 mmHg 87%
    14:00 0°C° 0.4 mm 7 mps 736 mmHg 86%
    15:00 +2°C° 0.4 mm 6 mps 736 mmHg 86%
    16:00 +3°C° 0.4 mm 4 mps 736 mmHg 86%
    17:00 +2°C° 0.1 mm 5 mps 736 mmHg 85%
    18:00 +2°C° 0.1 mm 5 mps 737 mmHg 84%
    19:00 +2°C° 0.1 mm 5 mps 737 mmHg 83%
    20:00 +2°C° 0 mm 5 mps 738 mmHg 83%
    21:00 +1°C° 0 mm 5 mps 738 mmHg 84%
    22:00 +1°C° 0 mm 6 mps 739 mmHg 84%
    23:00 +1°C° 0 mm 6 mps 739 mmHg 83%
    Show more